Location: Bas-Clignon
(44.2000°N, 6.6333°E)
Time: 06:41:29
(UTC+00:00)

Cosmos 2333 Rocket - Pass Details

Date: 03 February 2023
Orbit: 837 x 864 km, 70.8° (Epoch: 26 March)

Event Time Altitude Azimuth Distance (km) Brightness Sun altitude
Rises 19:55:14 0° 239° (WSW) 3,383 6.0 -34.1°
Reaches altitude 10° 19:58:03 10° 252° (WSW) 2,455 5.2 -34.6°
Maximum altitude 20:02:46 27° 309° (NW) 1,575 4.0 -35.5°
Enters shadow 20:04:28 23° 337° (NNW) 1,718 4.0 -35.8°
